• In Czech Republic
  • List of Countries
  • For 7 days
  • Water Temperature
  • Satellite Maps
  • Weather Map
  • Weather Widgets
  • user-avatar
    Login

    Hourly Weather Konstantyna

    Today, 19 January, Friday

    Time Temperature Precipitation Wind Pressure Humidity
    00:00 +8°C° 0 mm 2 mps 711 mmHg 72%
    01:00 +7°C° 0 mm 2 mps 711 mmHg 74%
    02:00 +7°C° 0 mm 2 mps 711 mmHg 77%
    03:00 +6°C° 0 mm 2 mps 710 mmHg 79%
    04:00 +6°C° 0 mm 2 mps 710 mmHg 80%
    05:00 +6°C° 0 mm 2 mps 710 mmHg 80%
    06:00 +6°C° 0 mm 1 mps 709 mmHg 83%
    07:00 +8°C° 0 mm 1 mps 709 mmHg 75%
    08:00 +10°C° 0 mm 1 mps 709 mmHg 68%
    09:00 +11°C° 0 mm 1 mps 709 mmHg 60%
    10:00 +13°C° 0 mm 1 mps 709 mmHg 55%
    11:00 +14°C° 0 mm 1 mps 709 mmHg 50%
    12:00 +16°C° 0 mm 1 mps 709 mmHg 47%
    13:00 +15°C° 0 mm 2 mps 709 mmHg 49%
    14:00 +14°C° 0 mm 3 mps 709 mmHg 51%
    15:00 +14°C° 0 mm 3 mps 708 mmHg 54%
    16:00 +12°C° 0 mm 3 mps 708 mmHg 65%
    17:00 +11°C° 0 mm 3 mps 708 mmHg 76%
    18:00 +9°C° 0 mm 3 mps 708 mmHg 88%
    19:00 +9°C° 0 mm 3 mps 709 mmHg 88%
    20:00 +9°C° 0 mm 3 mps 709 mmHg 89%
    21:00 +8°C° 0 mm 3 mps 710 mmHg 89%
    22:00 +8°C° 0.1 mm 3 mps 710 mmHg 89%
    23:00 +8°C° 0.1 mm 3 mps 710 mmHg 88%

    Tomorrow, 20 January, Saturday

    Time Temperature Precipitation Wind Pressure Humidity
    00:00 +8°C° 0.1 mm 3 mps 710 mmHg 87%
    01:00 +8°C° 0.2 mm 3 mps 710 mmHg 88%
    02:00 +8°C° 0.2 mm 3 mps 710 mmHg 89%
    03:00 +8°C° 0.2 mm 3 mps 710 mmHg 90%
    04:00 +8°C° 0.2 mm 3 mps 711 mmHg 90%
    05:00 +8°C° 0.2 mm 3 mps 711 mmHg 90%
    06:00 +8°C° 0.2 mm 3 mps 711 mmHg 90%
    07:00 +8°C° 0.1 mm 3 mps 711 mmHg 88%
    08:00 +9°C° 0.1 mm 3 mps 712 mmHg 86%
    09:00 +9°C° 0.1 mm 2 mps 712 mmHg 84%
    10:00 +9°C° 0.2 mm 3 mps 712 mmHg 82%
    11:00 +9°C° 0.2 mm 3 mps 712 mmHg 81%
    12:00 +10°C° 0.2 mm 3 mps 712 mmHg 79%
    13:00 +10°C° 0.1 mm 3 mps 712 mmHg 78%
    14:00 +10°C° 0.1 mm 4 mps 712 mmHg 77%
    15:00 +10°C° 0.1 mm 4 mps 712 mmHg 75%
    16:00 +8°C° 0 mm 4 mps 712 mmHg 79%
    17:00 +8°C° 0 mm 3 mps 712 mmHg 82%
    18:00 +7°C° 0 mm 2 mps 712 mmHg 86%
    19:00 +7°C° 0 mm 2 mps 712 mmHg 86%
    20:00 +7°C° 0 mm 3 mps 712 mmHg 86%
    21:00 +7°C° 0 mm 3 mps 713 mmHg 87%
    22:00 +5°C° 0 mm 3 mps 713 mmHg 87%
    23:00 +5°C° 0 mm 3 mps 713 mmHg 88%

    Day after tomorrow, 21 January, Sunday

    Time Temperature Precipitation Wind Pressure Humidity
    00:00 +5°C° 0 mm 3 mps 712 mmHg 89%
    01:00 +5°C° 0 mm 3 mps 712 mmHg 88%
    02:00 +5°C° 0 mm 3 mps 712 mmHg 88%
    03:00 +5°C° 0 mm 3 mps 712 mmHg 87%
    04:00 +5°C° 0 mm 3 mps 712 mmHg 85%
    05:00 +5°C° 0 mm 3 mps 712 mmHg 82%
    06:00 +5°C° 0 mm 3 mps 712 mmHg 80%
    07:00 +8°C° 0 mm 3 mps 712 mmHg 74%
    08:00 +9°C° 0 mm 3 mps 713 mmHg 69%
    09:00 +11°C° 0 mm 4 mps 713 mmHg 63%
    10:00 +12°C° 0 mm 5 mps 713 mmHg 64%
    11:00 +11°C° 0 mm 6 mps 713 mmHg 65%
    12:00 +12°C° 0 mm 7 mps 714 mmHg 66%
    13:00 +13°C° 0 mm 6 mps 713 mmHg 67%
    14:00 +13°C° 0 mm 6 mps 713 mmHg 68%
    15:00 +14°C° 0 mm 5 mps 713 mmHg 69%
    16:00 +12°C° 0 mm 4 mps 713 mmHg 75%
    17:00 +11°C° 0 mm 3 mps 714 mmHg 81%
    18:00 +9°C° 0 mm 2 mps 714 mmHg 87%
    19:00 +9°C° 0 mm 3 mps 714 mmHg 88%
    20:00 +9°C° 0 mm 3 mps 714 mmHg 89%
    21:00 +9°C° 0 mm 3 mps 715 mmHg 90%
    22:00 +8°C° 0 mm 3 mps 715 mmHg 90%
    23:00 +8°C° 0 mm 3 mps 715 mmHg 90%

    22 January, Monday

    Time Temperature Precipitation Wind Pressure Humidity
    00:00 +8°C° 0 mm 3 mps 715 mmHg 91%
    01:00 +8°C° 0 mm 3 mps 715 mmHg 91%
    02:00 +8°C° 0 mm 3 mps 715 mmHg 91%
    03:00 +8°C° 0 mm 3 mps 715 mmHg 91%
    04:00 +8°C° 0 mm 3 mps 715 mmHg 91%
    05:00 +8°C° 0 mm 3 mps 715 mmHg 90%
    06:00 +7°C° 0 mm 3 mps 715 mmHg 90%
    07:00 +9°C° 0 mm 3 mps 715 mmHg 84%
    08:00 +11°C° 0 mm 3 mps 716 mmHg 78%
    09:00 +12°C° 0 mm 3 mps 716 mmHg 73%
    10:00 +13°C° 0 mm 3 mps 716 mmHg 67%
    11:00 +15°C° 0 mm 4 mps 716 mmHg 61%
    12:00 +16°C° 0 mm 5 mps 716 mmHg 55%
    13:00 +16°C° 0 mm 5 mps 716 mmHg 55%
    14:00 +16°C° 0 mm 5 mps 716 mmHg 55%
    15:00 +16°C° 0 mm 5 mps 716 mmHg 55%
    16:00 +14°C° 0 mm 4 mps 716 mmHg 63%
    17:00 +12°C° 0 mm 3 mps 715 mmHg 70%
    18:00 +10°C° 0 mm 2 mps 715 mmHg 78%
    19:00 +10°C° 0 mm 2 mps 716 mmHg 79%
    20:00 +10°C° 0 mm 2 mps 716 mmHg 80%
    21:00 +9°C° 0 mm 2 mps 716 mmHg 81%
    22:00 +9°C° 0 mm 2 mps 716 mmHg 81%
    23:00 +9°C° 0 mm 2 mps 716 mmHg 81%

    23 January, Tuesday

    Time Temperature Precipitation Wind Pressure Humidity
    00:00 +9°C° 0 mm 2 mps 716 mmHg 81%
    01:00 +8°C° 0 mm 2 mps 715 mmHg 81%
    02:00 +8°C° 0 mm 2 mps 715 mmHg 82%
    03:00 +8°C° 0 mm 2 mps 715 mmHg 83%
    04:00 +7°C° 0 mm 2 mps 715 mmHg 83%
    05:00 +7°C° 0 mm 2 mps 715 mmHg 84%
    06:00 +7°C° 0 mm 2 mps 715 mmHg 84%
    07:00 +8°C° 0 mm 2 mps 716 mmHg 79%
    08:00 +10°C° 0 mm 2 mps 716 mmHg 74%
    09:00 +13°C° 0 mm 2 mps 717 mmHg 69%
    10:00 +14°C° 0 mm 2 mps 717 mmHg 65%
    11:00 +15°C° 0 mm 2 mps 717 mmHg 61%
    12:00 +16°C° 0 mm 3 mps 717 mmHg 57%
    13:00 +16°C° 0 mm 3 mps 717 mmHg 57%
    14:00 +16°C° 0 mm 3 mps 716 mmHg 57%
    15:00 +16°C° 0 mm 3 mps 716 mmHg 57%
    16:00 +14°C° 0 mm 2 mps 716 mmHg 64%
    17:00 +13°C° 0 mm 2 mps 716 mmHg 72%
    18:00 +10°C° 0 mm 2 mps 716 mmHg 80%
    19:00 +11°C° 0 mm 1 mps 716 mmHg 82%
    20:00 +10°C° 0 mm 1 mps 716 mmHg 83%
    21:00 +9°C° 0 mm 1 mps 717 mmHg 85%
    22:00 +9°C° 0 mm 1 mps 717 mmHg 85%
    23:00 +9°C° 0 mm 1 mps 717 mmHg 85%

    24 January, Wednesday

    Time Temperature Precipitation Wind Pressure Humidity
    00:00 +8°C° 0 mm 1 mps 717 mmHg 86%
    01:00 +8°C° 0 mm 1 mps 716 mmHg 86%
    02:00 +8°C° 0 mm 1 mps 716 mmHg 87%
    03:00 +8°C° 0 mm 1 mps 716 mmHg 87%
    04:00 +8°C° 0 mm 1 mps 716 mmHg 87%
    05:00 +8°C° 0 mm 1 mps 717 mmHg 86%
    06:00 +8°C° 0 mm 1 mps 717 mmHg 86%
    07:00 +9°C° 0 mm 1 mps 717 mmHg 81%
    08:00 +11°C° 0 mm 1 mps 718 mmHg 76%
    09:00 +12°C° 0 mm 1 mps 718 mmHg 71%
    10:00 +13°C° 0 mm 1 mps 718 mmHg 68%
    11:00 +14°C° 0 mm 1 mps 718 mmHg 64%
    12:00 +15°C° 0 mm 1 mps 718 mmHg 61%
    13:00 +15°C° 0 mm 1 mps 718 mmHg 60%
    14:00 +15°C° 0 mm 1 mps 718 mmHg 60%
    15:00 +15°C° 0 mm 2 mps 718 mmHg 60%
    16:00 +13°C° 0 mm 2 mps 718 mmHg 65%
    17:00 +12°C° 0 mm 2 mps 718 mmHg 70%
    18:00 +10°C° 0 mm 2 mps 718 mmHg 76%
    19:00 +9°C° 0 mm 2 mps 718 mmHg 76%
    20:00 +9°C° 0 mm 2 mps 718 mmHg 77%
    21:00 +8°C° 0 mm 2 mps 718 mmHg 78%
    22:00 +8°C° 0 mm 2 mps 718 mmHg 78%
    23:00 +8°C° 0 mm 2 mps 718 mmHg 78%
    Show more